AO-07 1 07530U 74089B 26122.01179338 -.00000042 00000-0 28922-4 0 9992 2 07530 101.9925 134.7737 0012014 217.8444 167.2097 12.53697383354735 UO-11 1 14781U 84021B 26122.17513038 .00001531 00000-0 16181-3 0 9997 2 14781 97.8027 88.2776 0007210 348.4871 11.6181 14.90673353250274 AO-27 1 22825U 93061C 26122.12958426 .00000104 00000-0 56775-4 0 9997 2 22825 98.6898 189.5544 0007505 230.3562 129.6959 14.30929457700410 FO-29 1 24278U 96046B 26122.17480970 .00000002 00000-0 38829-4 0 9993 2 24278 98.5292 337.3359 0349241 215.7085 142.0239 13.53272141466943 GO-32 1 25397U 98043D 26121.91459249 .00000064 00000-0 47909-4 0 9998 2 25397 99.0062 113.5096 0001546 33.8269 326.3007 14.24419145444745 ISS 1 25544U 98067A 26122.13533514 .00007461 00000-0 14312-3 0 9990 2 25544 51.6309 168.0490 0007234 13.9157 346.2029 15.49057929564615 NO-44 1 26931U 01043C 26122.13090712 .00000151 00000-0 87099-4 0 9999 2 26931 67.0525 3.3941 0006422 263.8951 96.1419 14.31938008283859 SO-50 1 27607U 02058C 26121.76023789 .00001348 00000-0 17601-3 0 9995 2 27607 64.5517 272.6163 0075624 270.9121 88.3321 14.82944454257571 CO-55 1 27844U 03031E 26121.95402279 .00000304 00000-0 15057-3 0 9990 2 27844 98.6752 131.0926 0008819 326.3478 33.7140 14.24306450185095 RS-22 1 27939U 03042A 26122.18352697 .00001204 00000-0 19394-3 0 9999 2 27939 98.3462 305.2461 0012413 57.9830 78.4562 14.73385233208773 CO-65 1 32785U 08021C 26122.16967991 .00006543 00000-0 41750-3 0 9995 2 32785 97.8253 102.6548 0008978 174.8126 185.3197 15.09012972978259 CO-66 1 32791U 08021J 26121.95486789 .00019753 00000-0 65757-3 0 9999 2 32791 97.7523 117.7064 0005101 105.2842 254.8962 15.31168166980216 RS-30 1 32953U 08025A 26122.14547949 -.00000010 00000-0 -14456-3 0 9999 2 32953 82.5084 24.0773 0020568 52.9935 307.3023 12.43177566813976 SRMSAT 1 37841U 11058D 26122.00684734 .00000423 00000-0 85750-4 0 9991 2 37841 19.9735 338.9910 0011766 56.2157 94.3817 14.11564910751286 ZACUBE-1 1 39417U 13066B 26122.14303487 .00005768 00000-0 44987-3 0 9994 2 39417 97.8128 84.2319 0043445 47.6207 312.8681 15.00814563673822 Delfi-N3xt 1 39428U 13066N 26121.85594433 .00010131 00000-0 89122-3 0 9996 2 39428 97.8355 42.2281 0075416 2.5097 357.6486 14.94516551667706 GOMX-1 1 39430U 13066Q 26122.15128822 .00002177 00000-0 33346-3 0 9996 2 39430 97.6509 325.5153 0127766 224.9667 134.1138 14.69283470663152 LO-74 1 39440U 13066AA 26121.83674549 .00003148 00000-0 29572-3 0 9998 2 39440 97.8881 70.6420 0057831 179.6191 180.5082 14.93428707670079 AO-73 1 39444U 13066AE 26122.17507811 .00010851 00000-0 68191-3 0 9996 2 39444 97.8256 92.6904 0036766 3.8384 356.3119 15.08867210672727 DTUSAT-2 1 40030U 14033W 26121.92923321 .00008924 00000-0 48935-3 0 9996 2 40030 98.0866 116.7447 0008987 43.2004 316.9930 15.14403261645688 LILACSAT-2 1 40908U 15049K 26122.19706288 .00019110 00000-0 34271-3 0 9996 2 40908 97.4709 157.3298 0008549 69.6338 290.5831 15.49933261588625 Horyu-4 1 41340U 16012D 26122.16888456 .00177877 00000-0 11232-2 0 9999 2 41340 30.9896 50.7648 0006336 293.7685 66.2307 15.74968168563516 Lapan A3 1 41603U 16040E 26122.23682502 .00004206 00000-0 13493-3 0 9991 2 41603 97.1487 119.9051 0010543 169.7825 190.3635 15.32806757547770 CAS-2T 1 41847U 16066G 26122.17965316 .00000730 00000-0 11292-3 0 9992 2 41847 98.3829 198.4353 0340903 269.1617 87.0508 14.44575918498152 TechnoSat 1 42829U 17042E 26122.16781779 .00003952 00000-0 28432-3 0 9999 2 42829 97.4240 281.6003 0016016 248.6141 111.3377 15.04679487479782 AO-91 1 43017U 17073E 26122.08989771 .00009893 00000-0 43538-3 0 9990 2 43017 97.4770 350.2666 0154293 127.3421 234.1982 15.11876467458421 S-Net D 1 43186U 18014G 26122.13997038 .00006551 00000-0 34190-3 0 9996 2 43186 97.5402 27.2263 0008555 165.9185 194.2288 15.16239438451782 S-Net B 1 43187U 18014H 26122.15052566 .00006574 00000-0 34337-3 0 9995 2 43187 97.5405 27.2220 0009306 162.5698 197.5856 15.16209185451789 S-Net A 1 43188U 18014J 26122.00708446 .00005849 00000-0 30559-3 0 9991 2 43188 97.5416 27.2798 0009179 163.4205 196.7330 15.16242737451760 S-Net C 1 43189U 18014K 26121.69217317 .00006300 00000-0 32925-3 0 9990 2 43189 97.5432 27.0343 0010680 159.1435 201.0235 15.16194040450260 Ten-Koh 1 43677U 18084G 26121.98216633 .00002213 00000-0 17053-3 0 9995 2 43677 98.0787 312.4055 0007349 273.3714 86.6669 15.02744301409223 PO-101 1 43678U 18084H 26122.15173490 .00002442 00000-0 20020-3 0 9991 2 43678 98.1067 316.3970 0012787 329.3566 30.6908 15.00222025409311 QO-100 1 43700U 18090A 26120.49191795 .00000147 00000-0 00000-0 0 9990 2 43700 0.0137 266.9736 0001700 165.7205 348.6817 1.00277015 27199 MinXSS-2 1 43758U 18099A 26122.18178117 .00040380 00000-0 88510-3 0 9991 2 43758 97.4561 197.2254 0008557 80.2609 279.9605 15.43943446407025 AO-95 1 43770U 18099N 26122.18230927 .00014603 00000-0 57432-3 0 9991 2 43770 97.4417 182.6270 0010028 143.5206 216.6717 15.25713742406202 SNUSat 2 1 43782U 18099AA 26122.09841520 .00009897 00000-0 44672-3 0 9992 2 43782 97.4096 176.2066 0011999 98.4318 261.8278 15.21124524406024 SnugLite 1 43784U 18099AC 26122.13104176 .00012275 00000-0 47730-3 0 9990 2 43784 97.3907 176.8910 0004560 96.9246 263.2511 15.26169379406296 ITASat 1 1 43786U 18099AE 26122.09915279 .00008053 00000-0 39307-3 0 9991 2 43786 97.4064 174.5423 0013754 148.3517 211.8547 15.18457236405914 EAGLET 1 1 43790U 18099AJ 26122.08091986 .00004870 00000-0 28225-3 0 9995 2 43790 97.4269 172.9738 0012384 139.5935 220.6218 15.12582716405369 ESEO 1 43792U 18099AL 26122.07939166 .00001027 00000-0 78237-4 0 9997 2 43792 97.4006 161.4377 0013383 125.9803 234.2667 15.04098405404877 JO-97 1 43803U 18099AX 26122.13968295 .00017768 00000-0 57302-3 0 9990 2 43803 97.4160 184.8599 0007154 82.4042 277.8012 15.32194856406571 Suomi 100 1 43804U 18099AY 26122.09919918 .00012753 00000-0 47750-3 0 9999 2 43804 97.4221 182.6940 0011678 86.7521 273.5054 15.27364249406388 ISAT 1 43879U 18111D 26121.76197588 .00080250 00000-0 10590-2 0 9998 2 43879 97.5908 53.6960 0008769 104.8169 255.4058 15.58080890403920 UWE-4 1 43880U 18111E 26121.76651345 .00036856 00000-0 82481-3 0 9998 2 43880 97.5865 48.1262 0010382 122.7935 237.4314 15.43326843403618 Sparrow 1 43881U 18111F 26122.06939500 .00099814 00000-0 10544-2 0 9998 2 43881 97.6134 58.9649 0007277 122.4850 237.7112 15.63845136404140 Prox-1 1 44339U 19036A 26122.18447395 .00017279 00000-0 17384-2 0 9997 2 44339 23.9958 61.2699 0006503 218.2723 141.7315 14.89520827366602 Taurus 1 1 44530U 19059C 26122.15055522 .00007229 00000-0 11696-2 0 9993 2 44530 98.6376 284.1506 0009813 98.7223 261.5094 14.71590824351877 TO-108 1 44881U 19093C 26122.20357196 .00000500 00000-0 62654-4 0 9995 2 44881 97.7547 195.5552 0012315 235.4549 124.5505 14.86441576344584 RS-44 1 44909U 19096E 26122.11267623 .00000025 00000-0 64343-4 0 9993 2 44909 82.5256 10.3239 0216418 252.0532 105.6870 12.79748012296459 SALSAT 1 46495U 20068K 26121.95553892 .00008889 00000-0 31684-3 0 9990 2 46495 97.8856 122.2320 0011687 103.2556 256.9987 15.29110637308293 CSS (TIANHE-1) 1 48274U 21035A 26121.78450868 .00021864 00000-0 23571-3 0 9996 2 48274 41.4675 244.4722 0005904 312.5812 47.4529 15.63133362285918 CUTE 1 49263U 21088D 26122.11902111 .00068532 00000-0 45292-3 0 9991 2 49263 97.4209 217.6494 0000683 151.6498 208.4805 15.75380314255265 TeikyoSat 4 1 49396U 21102B 26122.04739076 .00002067 00000-0 13314-3 0 9996 2 49396 97.3703 153.3213 0013746 92.3451 267.9353 15.09339672245769 Z-Sat 1 49399U 21102E 26122.18957205 .00005917 00000-0 29378-3 0 9994 2 49399 97.3362 158.9115 0018055 51.9218 308.3641 15.17912621246463 KOSEN 1 1 49402U 21102H 26122.05896486 .00008477 00000-0 32954-3 0 9996 2 49402 97.3227 165.1247 0014019 18.4545 341.7199 15.26197269246980 HO-113 1 50466U 21131B 26122.23719909 .00000538 00000-0 17997-3 0 9994 2 50466 98.4960 214.8821 0003205 223.2881 136.8056 14.41312522228490 SNUGLITE 2 1 52899U 22065F 26121.63317933 .00001163 00000-0 22986-3 0 9996 2 52899 98.2136 266.5653 0007924 161.1616 198.9881 14.64258225204189 UmKA 1 (RS40S) 1 57172U 23091G 26122.15982206 .00006833 00000-0 31717-3 0 9995 2 57172 97.5083 181.0443 0011194 280.8214 79.1760 15.20298132157015 CubeBel-2 (EU11S) 1 57175U 23091K 26122.16402046 .00014645 00000-0 53637-3 0 9993 2 57175 97.5082 185.0024 0008390 276.7961 83.2323 15.28093757157276 RS-38S 1 57189U 23091Z 26122.13214328 .00017733 00000-0 53078-3 0 9999 2 57189 97.5115 190.7427 0006627 223.6625 136.4094 15.34578724157621 SONATE-2 1 59112U 24043Q 26121.92940432 .00038844 00000-0 56884-3 0 9997 2 59112 97.5483 269.6261 0006475 17.5345 342.6131 15.55462594120699 GRBBeta 1 60237U 24128C 26122.08817895 .00004211 00000-0 29321-3 0 9992 2 60237 61.9921 17.9579 0046446 124.9698 235.5770 15.06263573 99329 Curium One 1 60242U 24128H 26122.07957275 .00009091 00000-0 52916-3 0 9991 2 60242 61.9804 8.9866 0046029 121.5710 238.9892 15.11769618 99485 ROBUSTA-3A 1 60243U 24128J 26122.08527477 .00008899 00000-0 52955-3 0 9998 2 60243 61.9883 11.1864 0047102 119.0062 241.5765 15.10955432 99458 CatSat 1 60246U 24125J 26122.16038426 .00054369 00000-0 83169-3 0 9992 2 60246 97.2128 334.2290 0022781 356.7058 3.4043 15.53908636100232 HYPERVIEW-1G (RS66S) 1 61772U 24199AP 26122.18499176 .00100716 00000-0 96967-3 0 9991 2 61772 97.2965 359.9341 0008923 91.3478 268.8804 15.66172902127455 AO-123 1 61781U 24199AY 26122.15135250 .00009326 00000-0 27590-3 0 9999 2 61781 97.3062 351.2456 0015793 111.8699 248.4226 15.34997953126864 JINJUSat 1B 1 63210U 25052A 26121.66334796 .00020652 00000-0 66853-3 0 9998 2 63210 97.4057 18.3974 0001508 220.0628 140.0502 15.32065063 62979 NUSHSAT 1 1 63211U 25052B 26121.64574343 .00024796 00000-0 75037-3 0 9998 2 63211 97.4038 18.7986 0001139 220.8378 139.2779 15.34179865 63005 TEVEL2-4 1 63213U 25052D 26122.18729470 .00021764 00000-0 68360-3 0 9996 2 63213 97.3956 18.5491 0000283 254.8760 105.2451 15.33020813 63068 TEVEL2-5 1 63214U 25052E 26121.68074363 .00022075 00000-0 69709-3 0 9999 2 63214 97.3955 18.0031 0000337 285.9180 74.2025 15.32846989 62985 TEVEL2-6 1 63215U 25052F 26122.14891539 .00021919 00000-0 69255-3 0 9996 2 63215 97.3957 18.4562 0000426 276.3316 83.7878 15.32830192 63054 TEVEL2-1 1 63217U 25052H 26121.64043745 .00021721 00000-0 69717-3 0 9994 2 63217 97.3934 17.6251 0000908 340.0699 20.0507 15.32327829 62965 TEVEL2-3 1 63218U 25052J 26121.96310384 .00018986 00000-0 60884-3 0 9991 2 63218 97.3935 17.9639 0000883 337.6935 22.4268 15.32385252 63018 TEVEL2-2 1 63219U 25052K 26121.96746854 .00019275 00000-0 61881-3 0 9997 2 63219 97.3934 17.9531 0000899 336.0550 24.0650 15.32344787 63013 TEVEL2-9 1 63237U 25052AD 26121.95259267 .00017645 00000-0 60013-3 0 9998 2 63237 97.3995 17.4086 0004609 321.3483 38.7427 15.30493001 62953 TEVEL2-7 1 63238U 25052AE 26121.65823257 .00020356 00000-0 69742-3 0 9993 2 63238 97.4000 17.0496 0004748 322.6418 37.4492 15.30224938 62903 TEVEL2-8 1 63239U 25052AF 26122.18909902 .00019044 00000-0 65271-3 0 9990 2 63239 97.3992 17.5570 0004695 321.4432 38.6473 15.30226623 62988 HYDRA-W 1 63490U 25052BL 26113.93882235 .05662091 24406-5 29537-2 0 9997 2 63490 97.3690 18.2798 0008685 203.5899 156.4993 16.20186780 62336 HADES-ICM (SO-125) 1 63492U 25052BN 26122.19859627 .00560968 00000-0 25847-2 0 9990 2 63492 97.3818 25.4172 0005284 157.8336 202.3162 15.82128921 63526 SPIRONE 1 66657U 25274H 26121.75644699 .00003096 00000-0 30021-3 0 9999 2 66657 97.7478 51.7219 0012566 161.1019 199.0670 14.93354617 23299 K-HERO 1 66660U 25274L 26122.04211834 .00001674 00000-0 16302-3 0 9993 2 66660 97.7486 52.1300 0014212 165.9408 194.2211 14.93786452 23342 SNUGLITE-III DURI 1 66661U 25274M 26121.76350014 .00002096 00000-0 20241-3 0 9992 2 66661 97.7480 51.8740 0014805 168.0965 192.0608 14.93844758 23307 SilverSat 1 66909U 98067XV 26113.44966717 .07226154 12288-4 11979-2 0 9998 2 66909 51.6027 190.0749 0007952 333.4666 26.5949 16.32457272 22308 SAKHACUBE-CHOLBON 1 67290U 25313AU 26122.14679712 .00012789 00000-0 52910-3 0 9995 2 67290 97.3948 197.7847 0010420 151.2096 208.9718 15.24038521 18960 RS95S (QMR-KWT-2) 1 67291U 25313AV 26122.10601110 .00015523 00000-0 62197-3 0 9996 2 67291 97.3943 197.8370 0010228 150.8456 209.3355 15.25073442 18963 Ten-Koh2 1 68261U 25241B 26122.16694603 .00007323 00000-0 31792-3 0 9995 2 68261 51.6490 178.5751 0005870 356.9841 3.1100 15.23307855 7898 JACK-002 1 68417U 26067B 26121.92007854 .00007606 00000-0 36858-3 0 9996 2 68417 97.4540 81.1141 0004096 85.6260 274.5443 15.18808953 4921 DISCO 2 1 68431U 26067R 26122.12744859 .00008869 00000-0 43431-3 0 9995 2 68431 97.4577 81.3123 0003773 124.9999 235.1589 15.18394230 4951 HADES-SA (SpinnyONE) 1 68446U 26067AG 26122.15264323 .00019005 00000-0 94858-3 0 9990 2 68446 97.4390 81.2036 0005358 217.8138 142.2719 15.17534431 4940 PARUS-6U1 1 68456U 26067AS 26122.15522688 .00007260 00000-0 37022-3 0 9992 2 68456 97.4529 81.2547 0004551 205.7169 154.3838 15.17035019 4951 SAL-E 1 68458U 26067AU 26122.15520578 .00010027 00000-0 50890-3 0 9993 2 68458 97.4455 81.2251 0004435 217.2294 142.8633 15.17103539 4959 FSI-SAT 2 1 68792U 26088A 26115.68414791 .00000849 00000-0 61705-4 0 9995 2 68792 97.4990 266.2992 0012809 287.5176 72.4651 15.06389719 389 OrigamiSat 2 1 68795U 26088D 26113.82356135 .00001590 00000-0 10758-3 0 9994 2 68795 97.5008 264.4888 0014430 266.4157 93.5420 15.07861282 103 ARICA 2 1 68796U 26088E 26113.82352201 .00001593 00000-0 10752-3 0 9992 2 68796 97.4989 264.4863 0014541 264.6248 95.3321 15.07951070 103 WASEDA-SAT-ZERO-II 1 68797U 26088F 26113.82350997 .00001596 00000-0 10767-3 0 9992 2 68797 97.5012 264.4822 0014814 262.4592 97.4954 15.07975758 102 MANGARO-II-Piscus 1 68798U 26088G 26113.82334568 .00001591 00000-0 10611-3 0 9992 2 68798 97.4999 264.4888 0017891 266.9056 93.0125 15.08353756 101 IO-86 1 40931U 25360.30710720 .00000000 00000-0 12800-3 0 00 2 40931 6.0006 332.5373 0012733 338.8432 8.1437 14.79075515 01 LILIUM-4 1 71922C 26067AC 26089.50133053 -.00014632 00000 0 -74472-3 0 04 2 71922 97.4497 49.1617 0004341 5.9603 355.7042 15.16896692 16